This is the latest recevied weather packets stored in our database for station/object M0HPP-13. If no packets are shown the sender has not sent any weather packets the latest 10 day(s).
| Time | Temp. | Humidity | Pressure | Rain* | Wind** | Luminosity | Snow |
|---|---|---|---|---|---|---|---|
| 1787769486 | 15.56° C | 92% | 1017.5 hPa | 0 mm | - | 76 W/m² | - |
| 1787768886 | 15.56° C | 92% | 1017.3 hPa | 0 mm | - | 95 W/m² | - |
| 1787768286 | 15.56° C | 92% | 1017.3 hPa | 0 mm | - | 108 W/m² | - |
| 1787767686 | 15.56° C | 92% | 1017.2 hPa | 0 mm | - | 124 W/m² | - |
| 1787767086 | 15.56° C | 92% | 1017.2 hPa | 0 mm | - | 137 W/m² | - |
| 1787766486 | 15° C | 92% | 1017.3 hPa | 0 mm | - | 126 W/m² | - |
| 1787765886 | 15° C | 92% | 1017.3 hPa | 0 mm | - | 125 W/m² | - |
| 1787765286 | 15° C | 93% | 1017.3 hPa | 0 mm | - | 131 W/m² | - |
| 1787764686 | 15° C | 94% | 1017.2 hPa | 0 mm | - | 124 W/m² | - |
| 1787764086 | 15° C | 93% | 1017.3 hPa | 0 mm | - | 122 W/m² | - |
| 1787763486 | 15° C | 94% | 1017.3 hPa | 0 mm | - | 154 W/m² | - |
| 1787762886 | 15° C | 94% | 1017.3 hPa | 0 mm | - | 180 W/m² | - |
| 1787762286 | 15° C | 95% | 1017.4 hPa | 0 mm | - | 182 W/m² | - |
| 1787761686 | 15° C | 95% | 1017.4 hPa | 0 mm | - | 178 W/m² | - |
| 1787761086 | 15° C | 95% | 1017.3 hPa | 0 mm | - | 243 W/m² | - |
| 1787760486 | 15° C | 95% | 1017.4 hPa | 0 mm | - | 201 W/m² | - |
| 1787759886 | 15° C | 95% | 1017.5 hPa | 0 mm | - | 267 W/m² | - |
| 1787757486 | 14.44° C | 96% | 1017.9 hPa | 0 mm | - | 235 W/m² | - |
| 1787756886 | 14.44° C | 96% | 1017.9 hPa | 0 mm | - | 223 W/m² | - |
| 1787756286 | 14.44° C | 96% | 1018.1 hPa | 0 mm | - | 219 W/m² | - |
| 1787755686 | 14.44° C | 96% | 1018.1 hPa | 0 mm | - | 241 W/m² | - |
| 1787755086 | 13.89° C | 96% | 1018.2 hPa | 0 mm | - | 185 W/m² | - |
| 1787754486 | 13.89° C | 96% | 1018.2 hPa | 0 mm | - | 198 W/m² | - |
| 1787753886 | 13.89° C | 96% | 1018.3 hPa | 0 mm | - | 174 W/m² | - |
| 1787753286 | 13.89° C | 96% | 1018.3 hPa | 0 mm | - | 163 W/m² | - |
* Rain latest hour (hover to see other rain measurements)
** Current wind speed in m/s (hover to see current wind gust speed)